Firefly 4

operational
NORAD ID: 65320 Int'l Des: 2025-188 Owner: PIXX Country: IN
LEOCIRCULARRETROGRADESSO

About Firefly 4

Description loading...

Live Position

Loading 3D Globe...

Upcoming Passes

Altitude History

Altitude vs Time

uPlot chart will show altitude changes over time

Two-Line Element Set

1 65320U 25188F 26062.19356955 .00001795 00000-0 17884-3 0 9992
2 65320 97.7457 139.1780 0010731 159.8175 200.3470 14.92810665 28091
Epoch: Mar 3, 2026 • Age: 31 hours

Current Status

Altitude 606.8 km
Velocity 7.56 km/s
Sub-Earth Point -50.49°S, 37.53°E
Launch Date Aug 26, 2025
Age 0.5 years
Type other

Technical Details

Classification Payload
Mass 60.00 kg
Dry Mass 60.00 kg
Total Mass 60.00 kg
Length 0.50 m
Diameter 0.30 m
Span 2.00 m
Shape Box + 2 pan
Manufacturer PIXX
Bus Type Firefly
Phase Status In Orbit
Owner/State PIXX/IN

Large Constellations

Loading constellations...